Weather in Kaluga

Russia / Saratov Oblast     51°22′18″N   47°10′00″E
temp.,
°C
wind,
m/s
gust,
m/s
humid.,
%
clouds,
%
prec.,
mm/h
press.,
hPa
HPBL,
m
13 april, tue
tue1301:00+11ese411575 0.0 1031169
04:00+9ese49595 0.0 1031137
07:00+9ese410625 0.0 1032167
10:00+15ese68415 0.0 1032452
13:00+19ese67305 0.0 10311050
16:00+20ese682754 0.0 10291263
19:00+17ese5103642 0.0 1028250
22:00+12e412545 0.0 1029218
14 april, wed
wed1401:00+10e410580 0.0 1028170
04:00+9e410620 0.0 1027157
07:00+8e411630 0.0 1026197
10:00+14ese69460 0.0 1026518
13:00+19ese78320 0.0 10241191
16:00+20ese67305 0.0 10221618
19:00+17ese58430 0.0 1021202
22:00+13e49630 0.0 1021166
15 april, thu
thu1501:00+11e410710 0.0 1020173
04:00+10e48710 0.0 1019121
07:00+10e49715 0.0 1019165
10:00+17ese574777 0.0 1018462
13:00+21ese5733100 0.0 10171335
16:00+22ese4530100 0.0 10161813
19:00+19ese3641100 0.0 1015108
22:00+15ese3551100 0.0 101571
16 april, fri
fri1601:00+13ese3458100 0.0 101560
04:00+12e335714 0.0 101438
07:00+11ene3460100 0.0 101565
10:00+16ene3447100 0.0 1015358
13:00+20ne333522 0.0 10141155
16:00+21ne32295 0.0 10142529
19:00+18ne46415 0.0 1014161
22:00+14ne35526 0.0 101573
17 april, sat
sat1701:00+13ne4559100 0.0 101674
04:00+11ne498199 0.0 1017209
07:00+10ne5108899 0.0 1018350
10:00+13ne786989 0.0 1018632
13:00+15ne885426 0.0 10191088
16:00+15ne7743100 0.0 10201344
19:00+12ne710405 0.0 10211050
22:00+9ne612510 0.0 1023682